Location: Hermaringen
(48.5952°N, 10.2585°E)
Time: 21:43:02
(UTC+00:00)

Vanguard 2 Rocket - All Passes

Search period start: 18 February 2026 00:00
Search period end: 28 February 2026 00:00
Orbit: 553 x 3286 km, 32.9° (Epoch: 18 February)

Date Brightness Start Highest point End Pass type
(mag) Time Alt. Az. Time Alt. Az. Time Alt. Az.
18 Feb - 09:15:53 10° S 09:27:17 19° SE 09:37:19 10° ESE daylight
18 Feb - 11:25:54 10° SW 11:41:43 34° SSE 11:53:17 10° ESE daylight
18 Feb - 13:41:08 10° WSW 13:56:03 39° S 14:05:36 10° ESE daylight
18 Feb - 15:58:31 10° WSW 16:08:54 27° SSW 16:15:45 10° SSE daylight
19 Feb - 08:14:27 10° SSE 08:21:13 13° SE 08:27:42 10° ESE daylight
19 Feb - 10:19:57 10° SSW 10:35:20 30° SSE 10:47:39 10° ESE daylight
19 Feb - 12:33:43 10° SW 12:50:02 40° S 13:01:05 10° ESE daylight
19 Feb - 14:50:32 10° WSW 15:03:47 35° SSW 15:12:14 10° SE daylight
19 Feb - 17:09:30 10° WSW 17:15:29 16° SW 17:20:06 10° S visible
20 Feb - 09:15:01 10° SSW 09:28:57 24° SSE 09:41:10 10° ESE daylight
20 Feb - 11:26:44 10° SW 11:43:41 39° SSE 11:56:06 10° ESE daylight
20 Feb - 13:42:39 10° WSW 13:58:10 40° S 14:08:12 10° SE daylight
20 Feb - 16:00:38 10° W 16:10:53 25° SSW 16:17:53 10° SSE daylight
21 Feb - 08:11:36 10° S 08:22:44 18° SE 08:33:17 10° ESE daylight
21 Feb - 10:20:27 10° SW 10:37:08 35° SSE 10:50:34 10° ESE daylight
21 Feb - 12:35:03 10° WSW 12:52:04 43° S 13:03:43 10° ESE daylight
21 Feb - 14:52:20 10° WSW 15:05:48 33° SSW 15:14:35 10° SE daylight
21 Feb - 17:12:52 10° WSW 17:17:14 13° SW 17:20:55 10° SSW visible
22 Feb - 07:11:54 10° SSE 07:16:48 11° SE 07:21:42 10° ESE daylight
22 Feb - 09:15:02 10° SSW 09:30:34 30° SSE 09:44:21 10° E daylight
22 Feb - 11:27:54 10° SW 11:45:35 43° S 11:58:45 10° ESE daylight
22 Feb - 13:44:18 10° WSW 14:00:10 40° SSW 14:10:40 10° SE daylight
22 Feb - 16:02:56 10° W 16:12:42 22° SW 16:19:41 10° S daylight
23 Feb - 08:10:45 10° S 08:24:10 24° SE 08:37:07 10° E daylight
23 Feb - 10:21:22 10° SW 10:38:53 40° SSE 10:53:15 10° ESE daylight
23 Feb - 12:36:34 10° WSW 12:54:02 44° S 13:06:13 10° ESE daylight
23 Feb - 14:54:16 10° W 15:07:40 31° SSW 15:16:43 10° SSE daylight
24 Feb - 07:08:16 10° SSE 07:18:06 17° SE 07:28:08 10° ESE daylight
24 Feb - 09:15:38 10° SSW 09:32:08 35° SSE 09:47:08 10° E daylight
24 Feb - 11:29:18 10° WSW 11:47:27 46° S 12:01:15 10° ESE daylight
24 Feb - 13:46:03 10° W 14:02:03 39° SSW 14:12:56 10° SE daylight
24 Feb - 16:05:32 10° W 16:14:21 18° SW 16:21:02 10° S daylight
25 Feb - 08:10:52 10° SSW 08:25:35 29° SSE 08:40:13 10° E daylight
25 Feb - 10:22:37 10° SW 10:40:36 44° SSE 10:55:46 10° ESE daylight
25 Feb - 12:38:13 10° WSW 12:55:53 44° SSW 13:08:34 10° SE daylight
25 Feb - 14:56:21 10° W 15:09:22 28° SW 15:18:34 10° SSE daylight
26 Feb - 07:07:20 10° S 07:19:22 22° SE 07:32:06 10° E daylight
26 Feb - 09:16:41 10° SW 09:33:43 40° SSE 09:49:41 10° E daylight
26 Feb - 11:30:53 10° WSW 11:49:15 47° S 12:03:38 10° ESE daylight
26 Feb - 13:47:55 10° W 14:03:48 36° SSW 14:15:01 10° SE daylight
26 Feb - 16:08:45 10° WSW 16:15:51 15° SW 16:21:39 10° SSW daylight
27 Feb - 06:06:09 10° SSE 06:13:38 14° SE 06:21:38 10° ESE daylight
27 Feb - 08:11:35 10° SSW 08:27:00 34° SSE 08:42:54 10° E daylight
27 Feb - 10:24:07 10° WSW 10:42:19 47° S 10:58:08 10° ESE daylight
27 Feb - 12:40:00 10° WSW 12:57:39 43° SSW 13:10:45 10° SE daylight
27 Feb - 14:58:40 10° W 15:10:55 24° SW 15:20:02 10° S daylight
